Location: downtown San Diego
(32.7310°N, 117.1990°W)
Time: 13:10:03
(UTC-08:00)

Cosmos 1515 Rocket - Pass Details

Date: 12 July 2018
Orbit: 607 x 629 km, 82.5° (Epoch: 17 November)

Event Time Altitude Azimuth Distance (km) Brightness Sun altitude
Rises 21:45:20 0° 352° (N) 2,923 7.9 -19.2°
Reaches altitude 10° 21:47:35 10° 351° (N) 2,012 6.9 -19.5°
Maximum altitude 21:52:02 80° 266° (W) 642 3.6 -20.2°
Enters shadow 21:53:39 39° 184° (S) 942 4.1 -20.4°
